Year,Month,Day,Hour,Minute,Value (Times are PST for temperature in C)
2010,06,23,00,00,14.90
2010,06,23,00,01,14.90
2010,06,23,00,02,14.80
2010,06,23,00,03,14.80
2010,06,23,00,04,14.80
2010,06,23,00,05,14.80
2010,06,23,00,06,14.80
2010,06,23,00,07,14.80
2010,06,23,00,08,14.80
2010,06,23,00,09,14.80
2010,06,23,00,10,14.80
2010,06,23,00,11,14.70
2010,06,23,00,12,14.70
2010,06,23,00,13,14.70
2010,06,23,00,14,14.70
2010,06,23,00,15,14.70
2010,06,23,00,16,14.60
2010,06,23,00,17,14.60
2010,06,23,00,18,14.60
2010,06,23,00,19,14.60
2010,06,23,00,20,14.50
2010,06,23,00,21,14.50
2010,06,23,00,22,14.50
2010,06,23,00,23,14.40
2010,06,23,00,24,14.40
2010,06,23,00,25,14.40
2010,06,23,00,26,14.40
2010,06,23,00,27,14.40
2010,06,23,00,28,14.40
2010,06,23,00,29,14.40
2010,06,23,00,30,14.30
2010,06,23,00,31,14.30
2010,06,23,00,32,14.30
2010,06,23,00,33,14.30
2010,06,23,00,34,14.30
2010,06,23,00,35,14.30
2010,06,23,00,36,14.20
2010,06,23,00,37,14.20
2010,06,23,00,38,14.20
2010,06,23,00,39,14.20
2010,06,23,00,40,14.20
2010,06,23,00,41,14.20
2010,06,23,00,42,14.20
2010,06,23,00,43,14.20
2010,06,23,00,44,14.20
2010,06,23,00,45,14.30
2010,06,23,00,46,14.30
2010,06,23,00,47,14.30
2010,06,23,00,48,14.30
2010,06,23,00,49,14.30
2010,06,23,00,50,14.20
2010,06,23,00,51,14.20
2010,06,23,00,52,14.20
2010,06,23,00,53,14.20
2010,06,23,00,54,14.20
2010,06,23,00,55,14.20
2010,06,23,00,56,14.20
2010,06,23,00,57,14.20
2010,06,23,00,58,14.20
2010,06,23,00,59,14.20
2010,06,23,01,00,14.10
2010,06,23,01,01,14.10
2010,06,23,01,02,14.10
2010,06,23,01,03,14.10
2010,06,23,01,04,14.10
2010,06,23,01,05,14.10
2010,06,23,01,06,14.00
2010,06,23,01,07,14.00
2010,06,23,01,08,14.00
2010,06,23,01,09,14.00
2010,06,23,01,10,14.00
2010,06,23,01,11,14.00
2010,06,23,01,12,14.00
2010,06,23,01,13,14.00
2010,06,23,01,14,14.00
2010,06,23,01,15,14.00
2010,06,23,01,16,13.90
2010,06,23,01,17,13.90
2010,06,23,01,18,13.90
2010,06,23,01,19,13.90
2010,06,23,01,20,13.90
2010,06,23,01,21,13.90
2010,06,23,01,22,13.90
2010,06,23,01,23,13.90
2010,06,23,01,24,13.90
2010,06,23,01,25,13.90
2010,06,23,01,26,13.90
2010,06,23,01,27,13.90
2010,06,23,01,28,13.90
2010,06,23,01,29,13.90
2010,06,23,01,30,13.90
2010,06,23,01,31,13.90
2010,06,23,01,32,13.90
2010,06,23,01,33,13.90
2010,06,23,01,34,13.90
2010,06,23,01,35,13.90
2010,06,23,01,36,13.90
2010,06,23,01,37,13.90
2010,06,23,01,38,13.90
2010,06,23,01,39,13.90
2010,06,23,01,40,13.90
2010,06,23,01,41,13.90
2010,06,23,01,42,13.90
2010,06,23,01,43,13.90
2010,06,23,01,44,13.90
2010,06,23,01,45,13.90
2010,06,23,01,46,13.90
2010,06,23,01,47,13.90
2010,06,23,01,48,13.90
2010,06,23,01,49,13.90
2010,06,23,01,50,13.90
2010,06,23,01,51,13.90
2010,06,23,01,52,13.80
2010,06,23,01,53,13.80
2010,06,23,01,54,13.80
2010,06,23,01,55,13.80
2010,06,23,01,56,13.80
2010,06,23,01,57,13.80
2010,06,23,01,58,13.80
2010,06,23,01,59,13.80
2010,06,23,02,00,13.80
2010,06,23,02,01,13.80
2010,06,23,02,02,13.70
2010,06,23,02,03,13.70
2010,06,23,02,04,13.70
2010,06,23,02,05,13.70
2010,06,23,02,06,13.70
2010,06,23,02,07,13.70
2010,06,23,02,08,13.70
2010,06,23,02,09,13.70
2010,06,23,02,10,13.70
2010,06,23,02,11,13.70
2010,06,23,02,12,13.70
2010,06,23,02,13,13.70
2010,06,23,02,14,13.70
2010,06,23,02,15,13.70
2010,06,23,02,16,13.70
2010,06,23,02,17,13.70
2010,06,23,02,18,13.70
2010,06,23,02,19,13.70
2010,06,23,02,20,13.70
2010,06,23,02,21,13.70
2010,06,23,02,22,13.60
2010,06,23,02,23,13.60
2010,06,23,02,24,13.60
2010,06,23,02,25,13.60
2010,06,23,02,26,13.60
2010,06,23,02,27,13.60
2010,06,23,02,28,13.60
2010,06,23,02,29,13.60
2010,06,23,02,30,13.60
2010,06,23,02,31,13.60
2010,06,23,02,32,13.60
2010,06,23,02,33,13.60
2010,06,23,02,34,13.60
2010,06,23,02,35,13.60
2010,06,23,02,36,13.60
2010,06,23,02,37,13.60
2010,06,23,02,38,13.60
2010,06,23,02,39,13.60
2010,06,23,02,40,13.60
2010,06,23,02,41,13.60
2010,06,23,02,42,13.60
2010,06,23,02,43,13.60
2010,06,23,02,44,13.60
2010,06,23,02,45,13.50
2010,06,23,02,46,13.50
2010,06,23,02,47,13.50
2010,06,23,02,48,13.50
2010,06,23,02,49,13.40
2010,06,23,02,50,13.40
2010,06,23,02,51,13.40
2010,06,23,02,52,13.40
2010,06,23,02,53,13.40
2010,06,23,02,54,13.40
2010,06,23,02,55,13.30
2010,06,23,02,56,13.30
2010,06,23,02,57,13.30
2010,06,23,02,58,13.30
2010,06,23,02,59,13.30
2010,06,23,03,00,13.30
2010,06,23,03,01,13.20
2010,06,23,03,02,13.20
2010,06,23,03,03,13.20
2010,06,23,03,04,13.20
2010,06,23,03,05,13.20
2010,06,23,03,06,13.20
2010,06,23,03,07,13.20
2010,06,23,03,08,13.10
2010,06,23,03,09,13.10
2010,06,23,03,10,13.10
2010,06,23,03,11,13.10
2010,06,23,03,12,13.10
2010,06,23,03,13,13.10
2010,06,23,03,14,13.10
2010,06,23,03,15,13.10
2010,06,23,03,16,13.10
2010,06,23,03,17,13.00
2010,06,23,03,18,13.00
2010,06,23,03,19,13.00
2010,06,23,03,20,12.90
2010,06,23,03,21,12.90
2010,06,23,03,22,12.90
2010,06,23,03,23,12.90
2010,06,23,03,24,12.90
2010,06,23,03,25,12.90
2010,06,23,03,26,12.80
2010,06,23,03,27,12.80
2010,06,23,03,28,12.80
2010,06,23,03,29,12.80
2010,06,23,03,30,12.80
2010,06,23,03,31,12.80
2010,06,23,03,32,12.80
2010,06,23,03,33,12.80
2010,06,23,03,34,12.80
2010,06,23,03,35,12.80
2010,06,23,03,36,12.80
2010,06,23,03,37,12.80
2010,06,23,03,38,12.80
2010,06,23,03,39,12.80
2010,06,23,03,40,12.80
2010,06,23,03,41,12.80
2010,06,23,03,42,12.80
2010,06,23,03,43,12.80
2010,06,23,03,44,12.80
2010,06,23,03,45,12.80
2010,06,23,03,46,12.80
2010,06,23,03,47,12.80
2010,06,23,03,48,12.80
2010,06,23,03,49,12.80
2010,06,23,03,50,12.70
2010,06,23,03,51,12.70
2010,06,23,03,52,12.70
2010,06,23,03,53,12.70
2010,06,23,03,54,12.70
2010,06,23,03,55,12.70
2010,06,23,03,56,12.70
2010,06,23,03,57,12.70
2010,06,23,03,58,12.70
2010,06,23,03,59,12.70
2010,06,23,04,00,12.80
2010,06,23,04,01,12.80
2010,06,23,04,02,12.80
2010,06,23,04,03,12.80
2010,06,23,04,04,12.80
2010,06,23,04,05,12.80
2010,06,23,04,06,12.80
2010,06,23,04,07,12.80
2010,06,23,04,08,12.80
2010,06,23,04,09,12.90
2010,06,23,04,10,12.90
2010,06,23,04,11,12.90
2010,06,23,04,12,12.90
2010,06,23,04,13,12.90
2010,06,23,04,14,12.90
2010,06,23,04,15,12.90
2010,06,23,04,16,12.90
2010,06,23,04,17,12.90
2010,06,23,04,18,12.90
2010,06,23,04,19,12.90
2010,06,23,04,20,12.80
2010,06,23,04,21,12.80
2010,06,23,04,22,12.80
2010,06,23,04,23,12.80
2010,06,23,04,24,12.80
2010,06,23,04,25,12.80
2010,06,23,04,26,12.80
2010,06,23,04,27,12.80
2010,06,23,04,28,12.80
2010,06,23,04,29,12.80
2010,06,23,04,30,12.80
2010,06,23,04,31,12.80
2010,06,23,04,32,12.80
2010,06,23,04,33,12.80
2010,06,23,04,34,12.80
2010,06,23,04,35,12.70
2010,06,23,04,36,12.70
2010,06,23,04,37,12.70
2010,06,23,04,38,12.70
2010,06,23,04,39,12.70
2010,06,23,04,40,12.70
2010,06,23,04,41,12.70
2010,06,23,04,42,12.70
2010,06,23,04,43,12.70
2010,06,23,04,44,12.70
2010,06,23,04,45,12.70
2010,06,23,04,46,12.70
2010,06,23,04,47,12.70
2010,06,23,04,48,12.70
2010,06,23,04,49,12.70
2010,06,23,04,50,12.70
2010,06,23,04,51,12.70
2010,06,23,04,52,12.70
2010,06,23,04,53,12.60
2010,06,23,04,54,12.60
2010,06,23,04,55,12.60
2010,06,23,04,56,12.60
2010,06,23,04,57,12.60
2010,06,23,04,58,12.60
2010,06,23,04,59,12.50
2010,06,23,05,00,12.50
2010,06,23,05,01,12.50
2010,06,23,05,02,12.40
2010,06,23,05,03,12.40
2010,06,23,05,04,12.40
2010,06,23,05,05,12.40
2010,06,23,05,06,12.40
2010,06,23,05,07,12.40
2010,06,23,05,08,12.40
2010,06,23,05,09,12.40
2010,06,23,05,10,12.40
2010,06,23,05,11,12.40
2010,06,23,05,12,12.30
2010,06,23,05,13,12.30
2010,06,23,05,14,12.30
2010,06,23,05,15,12.30
2010,06,23,05,16,12.30
2010,06,23,05,17,12.30
2010,06,23,05,18,12.30
2010,06,23,05,19,12.30
2010,06,23,05,20,12.30
2010,06,23,05,21,12.30
2010,06,23,05,22,12.30
2010,06,23,05,23,12.30
2010,06,23,05,24,12.30
2010,06,23,05,25,12.20
2010,06,23,05,26,12.20
2010,06,23,05,27,12.20
2010,06,23,05,28,12.20
2010,06,23,05,29,12.10
2010,06,23,05,30,12.10
2010,06,23,05,31,12.10
2010,06,23,05,32,12.10
2010,06,23,05,33,12.10
2010,06,23,05,34,12.10
2010,06,23,05,35,12.10
2010,06,23,05,36,12.10
2010,06,23,05,37,12.10
2010,06,23,05,38,12.10
2010,06,23,05,39,12.20
2010,06,23,05,40,12.20
2010,06,23,05,41,12.20
2010,06,23,05,42,12.20
2010,06,23,05,43,12.20
2010,06,23,05,44,12.20
2010,06,23,05,45,12.20
2010,06,23,05,46,12.20
2010,06,23,05,47,12.20
2010,06,23,05,48,12.30
2010,06,23,05,49,12.30
2010,06,23,05,50,12.30
2010,06,23,05,51,12.30
2010,06,23,05,52,12.30
2010,06,23,05,53,12.30
2010,06,23,05,54,12.30
2010,06,23,05,55,12.40
2010,06,23,05,56,12.40
2010,06,23,05,57,12.40
2010,06,23,05,58,12.40
2010,06,23,05,59,12.40
2010,06,23,06,00,12.40
2010,06,23,06,01,12.50
2010,06,23,06,02,12.50
2010,06,23,06,03,12.50
2010,06,23,06,04,12.60
2010,06,23,06,05,12.60
2010,06,23,06,06,12.60
2010,06,23,06,07,12.60
2010,06,23,06,08,12.60
2010,06,23,06,09,12.70
2010,06,23,06,10,12.70
2010,06,23,06,11,12.70
2010,06,23,06,12,12.70
2010,06,23,06,13,12.80
2010,06,23,06,14,12.80
2010,06,23,06,15,12.80
2010,06,23,06,16,12.80
2010,06,23,06,17,12.80
2010,06,23,06,18,12.80
2010,06,23,06,19,12.80
2010,06,23,06,20,12.80
2010,06,23,06,21,12.80
2010,06,23,06,22,12.70
2010,06,23,06,23,12.70
2010,06,23,06,24,12.70
2010,06,23,06,25,12.70
2010,06,23,06,26,12.70
2010,06,23,06,27,12.70
2010,06,23,06,28,12.70
2010,06,23,06,29,12.70
2010,06,23,06,30,12.80
2010,06,23,06,31,12.80
2010,06,23,06,32,12.80
2010,06,23,06,33,12.80
2010,06,23,06,34,12.80
2010,06,23,06,35,12.80
2010,06,23,06,36,12.80
2010,06,23,06,37,12.80
2010,06,23,06,38,12.90
2010,06,23,06,39,12.90
2010,06,23,06,40,12.90
2010,06,23,06,41,12.90
2010,06,23,06,42,12.90
2010,06,23,06,43,13.00
2010,06,23,06,44,13.00
2010,06,23,06,45,13.10
2010,06,23,06,46,13.10
2010,06,23,06,47,13.10
2010,06,23,06,48,13.10
2010,06,23,06,49,13.10
2010,06,23,06,50,13.10
2010,06,23,06,51,13.10
2010,06,23,06,52,13.10
2010,06,23,06,53,13.20
2010,06,23,06,54,13.20
2010,06,23,06,55,13.20
2010,06,23,06,56,13.30
2010,06,23,06,57,13.30
2010,06,23,06,58,13.30
2010,06,23,06,59,13.30
2010,06,23,07,00,13.40
2010,06,23,07,01,13.40
2010,06,23,07,02,13.50
2010,06,23,07,03,13.60
2010,06,23,07,04,13.60
2010,06,23,07,05,13.60
2010,06,23,07,06,13.70
2010,06,23,07,07,13.70
2010,06,23,07,08,13.80
2010,06,23,07,09,13.80
2010,06,23,07,10,13.90
2010,06,23,07,11,13.90
2010,06,23,07,12,14.00
2010,06,23,07,13,14.10
2010,06,23,07,14,14.20
2010,06,23,07,15,14.20
2010,06,23,07,16,14.30
2010,06,23,07,17,14.30
2010,06,23,07,18,14.30
2010,06,23,07,19,14.30
2010,06,23,07,20,14.40
2010,06,23,07,21,14.40
2010,06,23,07,22,14.40
2010,06,23,07,23,14.50
2010,06,23,07,24,14.50
2010,06,23,07,25,14.60
2010,06,23,07,26,14.60
2010,06,23,07,27,14.70
2010,06,23,07,28,14.70
2010,06,23,07,29,14.70
2010,06,23,07,30,14.80
2010,06,23,07,31,14.90
2010,06,23,07,32,14.90
2010,06,23,07,33,15.00
2010,06,23,07,34,15.00
2010,06,23,07,35,15.00
2010,06,23,07,36,15.00
2010,06,23,07,37,15.00
2010,06,23,07,38,15.10
2010,06,23,07,39,15.20
2010,06,23,07,40,15.20
2010,06,23,07,41,15.30
2010,06,23,07,42,15.30
2010,06,23,07,43,15.30
2010,06,23,07,44,15.40
2010,06,23,07,45,15.40
2010,06,23,07,46,15.50
2010,06,23,07,47,15.60
2010,06,23,07,48,15.60
2010,06,23,07,49,15.70
2010,06,23,07,50,15.70
2010,06,23,07,51,15.80
2010,06,23,07,52,15.80
2010,06,23,07,53,15.90
2010,06,23,07,54,15.90
2010,06,23,07,55,16.00
2010,06,23,07,56,16.10
2010,06,23,07,57,16.20
2010,06,23,07,58,16.30
2010,06,23,07,59,16.40
2010,06,23,08,00,16.40
2010,06,23,08,01,16.50
2010,06,23,08,02,16.60
2010,06,23,08,03,16.60
2010,06,23,08,04,16.70
2010,06,23,08,05,16.70
2010,06,23,08,06,16.80
2010,06,23,08,07,16.80
2010,06,23,08,08,16.90
2010,06,23,08,09,17.00
2010,06,23,08,10,17.00
2010,06,23,08,11,17.10
2010,06,23,08,12,17.10
2010,06,23,08,13,17.20
2010,06,23,08,14,17.20
2010,06,23,08,15,17.30
2010,06,23,08,16,17.40
2010,06,23,08,17,17.50
2010,06,23,08,18,17.50
2010,06,23,08,19,17.60
2010,06,23,08,20,17.60
2010,06,23,08,21,17.70
2010,06,23,08,22,17.80
2010,06,23,08,23,17.90
2010,06,23,08,24,18.00
2010,06,23,08,25,18.00
2010,06,23,08,26,18.10
2010,06,23,08,27,18.10
2010,06,23,08,28,18.10
2010,06,23,08,29,18.10
2010,06,23,08,30,18.10
2010,06,23,08,31,18.10
2010,06,23,08,32,18.00
2010,06,23,08,33,18.10
2010,06,23,08,34,18.10
2010,06,23,08,35,18.10
2010,06,23,08,36,18.10
2010,06,23,08,37,18.10
2010,06,23,08,38,18.10
2010,06,23,08,39,18.10
2010,06,23,08,40,18.10
2010,06,23,08,41,18.10
2010,06,23,08,42,18.10
2010,06,23,08,43,18.10
2010,06,23,08,44,18.10
2010,06,23,08,45,18.10
2010,06,23,08,46,18.10
2010,06,23,08,47,18.10
2010,06,23,08,48,18.20
2010,06,23,08,49,18.20
2010,06,23,08,50,18.30
2010,06,23,08,51,18.30
2010,06,23,08,52,18.40
2010,06,23,08,53,18.40
2010,06,23,08,54,18.50
2010,06,23,08,55,18.60
2010,06,23,08,56,18.70
2010,06,23,08,57,18.80
2010,06,23,08,58,18.80
2010,06,23,08,59,18.90
2010,06,23,09,00,18.90
2010,06,23,09,01,18.90
2010,06,23,09,02,18.90
2010,06,23,09,03,18.90
2010,06,23,09,04,18.90
2010,06,23,09,05,18.90
2010,06,23,09,06,18.90
2010,06,23,09,07,18.90
2010,06,23,09,08,18.90
2010,06,23,09,09,18.90
2010,06,23,09,10,19.00
2010,06,23,09,11,19.00
2010,06,23,09,12,19.10
2010,06,23,09,13,19.20
2010,06,23,09,14,19.20
2010,06,23,09,15,19.20
2010,06,23,09,16,19.20
2010,06,23,09,17,19.30
2010,06,23,09,18,19.30
2010,06,23,09,19,19.30
2010,06,23,09,20,19.30
2010,06,23,09,21,19.30
2010,06,23,09,22,19.30
2010,06,23,09,23,19.30
2010,06,23,09,24,19.30
2010,06,23,09,25,19.30
2010,06,23,09,26,19.30
2010,06,23,09,27,19.30
2010,06,23,09,28,19.30
2010,06,23,09,29,19.30
2010,06,23,09,30,19.40
2010,06,23,09,31,19.40
2010,06,23,09,32,19.40
2010,06,23,09,33,19.40
2010,06,23,09,34,19.40
2010,06,23,09,35,19.40
2010,06,23,09,36,19.40
2010,06,23,09,37,19.40
2010,06,23,09,38,19.40
2010,06,23,09,39,19.40
2010,06,23,09,40,19.40
2010,06,23,09,41,19.40
2010,06,23,09,42,19.50
2010,06,23,09,43,19.50
2010,06,23,09,44,19.40
2010,06,23,09,45,19.40
2010,06,23,09,46,19.40
2010,06,23,09,47,19.50
2010,06,23,09,48,19.50
2010,06,23,09,49,19.60
2010,06,23,09,50,19.60
2010,06,23,09,51,19.70
2010,06,23,09,52,19.70
2010,06,23,09,53,19.80
2010,06,23,09,54,19.90
2010,06,23,09,55,19.90
2010,06,23,09,56,19.90
2010,06,23,09,57,19.90
2010,06,23,09,58,19.80
2010,06,23,09,59,19.80
2010,06,23,10,00,19.80
2010,06,23,10,01,19.90
2010,06,23,10,02,19.90
2010,06,23,10,03,19.90
2010,06,23,10,04,19.90
2010,06,23,10,05,19.90
2010,06,23,10,06,20.00
2010,06,23,10,07,20.00
2010,06,23,10,08,19.90
2010,06,23,10,09,20.00
2010,06,23,10,10,20.00
2010,06,23,10,11,20.00
2010,06,23,10,12,20.00
2010,06,23,10,13,20.00
2010,06,23,10,14,20.10
2010,06,23,10,15,20.20
2010,06,23,10,16,20.40
2010,06,23,10,17,20.40
2010,06,23,10,18,20.40
2010,06,23,10,19,20.40
2010,06,23,10,20,20.40
2010,06,23,10,21,20.60
2010,06,23,10,22,20.70
2010,06,23,10,23,20.80
2010,06,23,10,24,20.80
2010,06,23,10,25,20.80
2010,06,23,10,26,20.90
2010,06,23,10,27,20.90
2010,06,23,10,28,20.90
2010,06,23,10,29,21.00
2010,06,23,10,30,21.10
2010,06,23,10,31,21.20
2010,06,23,10,32,21.20
2010,06,23,10,33,21.20
2010,06,23,10,34,21.20
2010,06,23,10,35,21.20
2010,06,23,10,36,21.30
2010,06,23,10,37,21.40
2010,06,23,10,38,21.60
2010,06,23,10,39,21.70
2010,06,23,10,40,21.80
2010,06,23,10,41,21.90
2010,06,23,10,42,22.10
2010,06,23,10,43,22.20
2010,06,23,10,44,22.30
2010,06,23,10,45,22.40
2010,06,23,10,46,22.60
2010,06,23,10,47,22.60
2010,06,23,10,48,22.60
2010,06,23,10,49,22.70
2010,06,23,10,50,22.60
2010,06,23,10,51,22.50
2010,06,23,10,52,22.60
2010,06,23,10,53,22.50
2010,06,23,10,54,22.40
2010,06,23,10,55,22.20
2010,06,23,10,56,22.10
2010,06,23,10,57,22.00
2010,06,23,10,58,21.80
2010,06,23,10,59,21.80
2010,06,23,11,00,21.80
2010,06,23,11,01,21.80
2010,06,23,11,02,21.80
2010,06,23,11,03,21.90
2010,06,23,11,04,21.90
2010,06,23,11,05,21.80
2010,06,23,11,06,21.80
2010,06,23,11,07,21.70
2010,06,23,11,08,21.70
2010,06,23,11,09,21.80
2010,06,23,11,10,21.80
2010,06,23,11,11,21.90
2010,06,23,11,12,22.10
2010,06,23,11,13,22.10
2010,06,23,11,14,22.20
2010,06,23,11,15,22.20
2010,06,23,11,16,22.20
2010,06,23,11,17,22.20
2010,06,23,11,18,22.20
2010,06,23,11,19,22.20
2010,06,23,11,20,22.20
2010,06,23,11,21,22.20
2010,06,23,11,22,22.20
2010,06,23,11,23,22.30
2010,06,23,11,24,22.40
2010,06,23,11,25,22.30
2010,06,23,11,26,22.20
2010,06,23,11,27,22.20
2010,06,23,11,28,22.30
2010,06,23,11,29,22.20
2010,06,23,11,30,22.00
2010,06,23,11,31,21.80
2010,06,23,11,32,21.70
2010,06,23,11,33,21.70
2010,06,23,11,34,21.80
2010,06,23,11,35,21.80
2010,06,23,11,36,21.80
2010,06,23,11,37,21.80
2010,06,23,11,38,21.80
2010,06,23,11,39,21.80
2010,06,23,11,40,21.70
2010,06,23,11,41,21.60
2010,06,23,11,42,21.50
2010,06,23,11,43,21.50
2010,06,23,11,44,21.50
2010,06,23,11,45,21.60
2010,06,23,11,46,21.70
2010,06,23,11,47,21.80
2010,06,23,11,48,21.80
2010,06,23,11,49,21.80
2010,06,23,11,50,21.80
2010,06,23,11,51,21.90
2010,06,23,11,52,21.90
2010,06,23,11,53,21.90
2010,06,23,11,54,22.00
2010,06,23,11,55,22.00
2010,06,23,11,56,21.80
2010,06,23,11,57,21.70
2010,06,23,11,58,21.70
2010,06,23,11,59,21.60
2010,06,23,12,00,21.60
2010,06,23,12,01,21.50
2010,06,23,12,02,21.40
2010,06,23,12,03,21.40
2010,06,23,12,04,21.50
2010,06,23,12,05,21.60
2010,06,23,12,06,21.60
2010,06,23,12,07,21.70
2010,06,23,12,08,21.80
2010,06,23,12,09,21.80
2010,06,23,12,10,21.90
2010,06,23,12,11,22.00
2010,06,23,12,12,21.90
2010,06,23,12,13,21.80
2010,06,23,12,14,21.80
2010,06,23,12,15,21.80
2010,06,23,12,16,21.80
2010,06,23,12,17,21.80
2010,06,23,12,18,21.80
2010,06,23,12,19,21.80
2010,06,23,12,20,21.80
2010,06,23,12,21,21.80
2010,06,23,12,22,21.80
2010,06,23,12,23,21.80
2010,06,23,12,24,21.80
2010,06,23,12,25,21.80
2010,06,23,12,26,21.80
2010,06,23,12,27,21.90
2010,06,23,12,28,22.00
2010,06,23,12,29,22.10
2010,06,23,12,30,22.10
2010,06,23,12,31,22.20
2010,06,23,12,32,22.30
2010,06,23,12,33,22.30
2010,06,23,12,34,22.30
2010,06,23,12,35,22.20
2010,06,23,12,36,22.20
2010,06,23,12,37,22.20
2010,06,23,12,38,22.30
2010,06,23,12,39,22.30
2010,06,23,12,40,22.30
2010,06,23,12,41,22.40
2010,06,23,12,42,22.40
2010,06,23,12,43,22.50
2010,06,23,12,44,22.60
2010,06,23,12,45,22.60
2010,06,23,12,46,22.60
2010,06,23,12,47,22.50
2010,06,23,12,48,22.30
2010,06,23,12,49,22.30
2010,06,23,12,50,22.30
2010,06,23,12,51,22.30
2010,06,23,12,52,22.20
2010,06,23,12,53,22.20
2010,06,23,12,54,22.10
2010,06,23,12,55,22.10
2010,06,23,12,56,22.20
2010,06,23,12,57,22.20
2010,06,23,12,58,22.20
2010,06,23,12,59,22.20
2010,06,23,13,00,22.20
2010,06,23,13,01,22.10
2010,06,23,13,02,22.10
2010,06,23,13,03,22.10
2010,06,23,13,04,22.10
2010,06,23,13,05,22.00
2010,06,23,13,06,22.00
2010,06,23,13,07,21.90
2010,06,23,13,08,21.80
2010,06,23,13,09,21.90
2010,06,23,13,10,22.00
2010,06,23,13,11,22.20
2010,06,23,13,12,22.40
2010,06,23,13,13,22.50
2010,06,23,13,14,22.60
2010,06,23,13,15,22.60
2010,06,23,13,16,22.50
2010,06,23,13,17,22.40
2010,06,23,13,18,22.20
2010,06,23,13,19,22.10
2010,06,23,13,20,22.10
2010,06,23,13,21,22.10
2010,06,23,13,22,22.30
2010,06,23,13,23,22.30
2010,06,23,13,24,22.40
2010,06,23,13,25,22.30
2010,06,23,13,26,22.30
2010,06,23,13,27,22.30
2010,06,23,13,28,22.30
2010,06,23,13,29,22.20
2010,06,23,13,30,22.10
2010,06,23,13,31,22.10
2010,06,23,13,32,22.20
2010,06,23,13,33,22.30
2010,06,23,13,34,22.30
2010,06,23,13,35,22.40
2010,06,23,13,36,22.50
2010,06,23,13,37,22.70
2010,06,23,13,38,22.80
2010,06,23,13,39,22.90
2010,06,23,13,40,23.00
2010,06,23,13,41,23.10
2010,06,23,13,42,23.20
2010,06,23,13,43,23.10
2010,06,23,13,44,23.10
2010,06,23,13,45,23.20
2010,06,23,13,46,23.30
2010,06,23,13,47,23.30
2010,06,23,13,48,23.30
2010,06,23,13,49,23.30
2010,06,23,13,50,23.30
2010,06,23,13,51,23.30
2010,06,23,13,52,23.30
2010,06,23,13,53,23.20
2010,06,23,13,54,23.00
2010,06,23,13,55,22.90
2010,06,23,13,56,22.80
2010,06,23,13,57,22.80
2010,06,23,13,58,22.90
2010,06,23,13,59,22.90
2010,06,23,14,00,22.90
2010,06,23,14,01,22.90
2010,06,23,14,02,22.90
2010,06,23,14,03,23.00
2010,06,23,14,04,23.10
2010,06,23,14,05,23.10
2010,06,23,14,06,22.90
2010,06,23,14,07,22.80
2010,06,23,14,08,22.70
2010,06,23,14,09,22.50
2010,06,23,14,10,22.60
2010,06,23,14,11,22.70
2010,06,23,14,12,22.90
2010,06,23,14,13,23.00
2010,06,23,14,14,23.00
2010,06,23,14,15,22.90
2010,06,23,14,16,22.90
2010,06,23,14,17,22.90
2010,06,23,14,18,23.00
2010,06,23,14,19,23.10
2010,06,23,14,20,23.20
2010,06,23,14,21,23.20
2010,06,23,14,22,23.10
2010,06,23,14,23,23.10
2010,06,23,14,24,23.20
2010,06,23,14,25,23.20
2010,06,23,14,26,23.30
2010,06,23,14,27,23.30
2010,06,23,14,28,23.30
2010,06,23,14,29,23.30
2010,06,23,14,30,23.20
2010,06,23,14,31,23.10
2010,06,23,14,32,23.00
2010,06,23,14,33,22.80
2010,06,23,14,34,22.80
2010,06,23,14,35,22.70
2010,06,23,14,36,22.70
2010,06,23,14,37,22.80
2010,06,23,14,38,22.80
2010,06,23,14,39,22.70
2010,06,23,14,40,22.50
2010,06,23,14,41,22.40
2010,06,23,14,42,22.40
2010,06,23,14,43,22.30
2010,06,23,14,44,22.20
2010,06,23,14,45,22.20
2010,06,23,14,46,22.20
2010,06,23,14,47,22.20
2010,06,23,14,48,22.10
2010,06,23,14,49,22.10
2010,06,23,14,50,22.10
2010,06,23,14,51,22.20
2010,06,23,14,52,22.30
2010,06,23,14,53,22.40
2010,06,23,14,54,22.50
2010,06,23,14,55,22.60
2010,06,23,14,56,22.70
2010,06,23,14,57,22.80
2010,06,23,14,58,22.80
2010,06,23,14,59,22.70
2010,06,23,15,00,22.70
2010,06,23,15,01,22.70
2010,06,23,15,02,22.90
2010,06,23,15,03,22.90
2010,06,23,15,04,22.90
2010,06,23,15,05,23.00
2010,06,23,15,06,23.20
2010,06,23,15,07,23.30
2010,06,23,15,08,23.30
2010,06,23,15,09,23.40
2010,06,23,15,10,23.40
2010,06,23,15,11,23.30
2010,06,23,15,12,23.40
2010,06,23,15,13,23.40
2010,06,23,15,14,23.50
2010,06,23,15,15,23.60
2010,06,23,15,16,23.60
2010,06,23,15,17,23.70
2010,06,23,15,18,23.80
2010,06,23,15,19,23.80
2010,06,23,15,20,23.70
2010,06,23,15,21,23.70
2010,06,23,15,22,23.50
2010,06,23,15,23,23.30
2010,06,23,15,24,23.20
2010,06,23,15,25,23.10
2010,06,23,15,26,23.00
2010,06,23,15,27,22.90
2010,06,23,15,28,22.90
2010,06,23,15,29,22.90
2010,06,23,15,30,23.00
2010,06,23,15,31,22.90
2010,06,23,15,32,22.90
2010,06,23,15,33,22.90
2010,06,23,15,34,22.80
2010,06,23,15,35,22.80
2010,06,23,15,36,22.80
2010,06,23,15,37,22.80
2010,06,23,15,38,22.70
2010,06,23,15,39,22.70
2010,06,23,15,40,22.80
2010,06,23,15,41,22.80
2010,06,23,15,42,22.80
2010,06,23,15,43,22.80
2010,06,23,15,44,22.80
2010,06,23,15,45,22.80
2010,06,23,15,46,22.80
2010,06,23,15,47,22.80
2010,06,23,15,48,22.80
2010,06,23,15,49,22.80
2010,06,23,15,50,22.80
2010,06,23,15,51,22.80
2010,06,23,15,52,22.80
2010,06,23,15,53,22.80
2010,06,23,15,54,22.90
2010,06,23,15,55,22.90
2010,06,23,15,56,23.00
2010,06,23,15,57,23.10
2010,06,23,15,58,23.10
2010,06,23,15,59,23.10
2010,06,23,16,00,23.10
2010,06,23,16,01,23.20
2010,06,23,16,02,23.20
2010,06,23,16,03,23.20
2010,06,23,16,04,23.30
2010,06,23,16,05,23.30
2010,06,23,16,06,23.40
2010,06,23,16,07,23.40
2010,06,23,16,08,23.40
2010,06,23,16,09,23.40
2010,06,23,16,10,23.50
2010,06,23,16,11,23.60
2010,06,23,16,12,23.60
2010,06,23,16,13,23.70
2010,06,23,16,14,23.70
2010,06,23,16,15,23.70
2010,06,23,16,16,23.70
2010,06,23,16,17,23.70
2010,06,23,16,18,23.70
2010,06,23,16,19,23.60
2010,06,23,16,20,23.50
2010,06,23,16,21,23.50
2010,06,23,16,22,23.60
2010,06,23,16,23,23.60
2010,06,23,16,24,23.50
2010,06,23,16,25,23.60
2010,06,23,16,26,23.60
2010,06,23,16,27,23.60
2010,06,23,16,28,23.60
2010,06,23,16,29,23.70
2010,06,23,16,30,23.80
2010,06,23,16,31,23.80
2010,06,23,16,32,23.80
2010,06,23,16,33,23.80
2010,06,23,16,34,23.90
2010,06,23,16,35,24.00
2010,06,23,16,36,24.00
2010,06,23,16,37,24.00
2010,06,23,16,38,24.10
2010,06,23,16,39,24.00
2010,06,23,16,40,24.10
2010,06,23,16,41,24.20
2010,06,23,16,42,24.40
2010,06,23,16,43,24.50
2010,06,23,16,44,24.60
2010,06,23,16,45,24.70
2010,06,23,16,46,24.70
2010,06,23,16,47,24.70
2010,06,23,16,48,24.90
2010,06,23,16,49,25.00
2010,06,23,16,50,25.10
2010,06,23,16,51,25.10
2010,06,23,16,52,25.10
2010,06,23,16,53,25.20
2010,06,23,16,54,25.30
2010,06,23,16,55,25.40
2010,06,23,16,56,25.50
2010,06,23,16,57,25.60
2010,06,23,16,58,25.60
2010,06,23,16,59,25.60
2010,06,23,17,00,25.70
2010,06,23,17,01,25.60
2010,06,23,17,02,25.40
2010,06,23,17,03,25.30
2010,06,23,17,04,25.20
2010,06,23,17,05,25.00
2010,06,23,17,06,24.90
2010,06,23,17,07,24.90
2010,06,23,17,08,24.80
2010,06,23,17,09,24.80
2010,06,23,17,10,24.90
2010,06,23,17,11,24.90
2010,06,23,17,12,24.80
2010,06,23,17,13,24.80
2010,06,23,17,14,24.80
2010,06,23,17,15,24.80
2010,06,23,17,16,24.80
2010,06,23,17,17,24.80
2010,06,23,17,18,24.80
2010,06,23,17,19,24.80